THA971 LSZH-VTBS

Flight info

Callsign THA971
Flight time N/A
Altitude 33000
Route DEGES Z2 UMVEG DCT DIMLO DCT INVED DCT SOKRU DCT DINRO/N0478F350 DCT UDROS UM859 KARDE UL851 TBN UM11 REBLO M11 LUSAL N701 LARGI B701 TUGTA A909 NINOP/N0480F370 A909 LEMOD N644 DI A466 SULOM M890 LKN R460 CEA L507 TEBOV/N0481F390 L507 IGONI DCT WILLA WILLA1C
Aircraft A346/H-SDE2E3FGHIJ3J4J5M1RWXY/LB1D1

Departure

Time 2026-05-08 09:06
Airport Zürich Airport (LSZH)

Arrival

Time N/A
Airport Suvarnabhumi Airport (VTBS)
Time Latitude Longitude Altitude Speed Heading
2026-05-08 07:39 47.46196 8.55398 1407 ft 0 kts 186°
2026-05-08 08:52 47.46200 8.55399 1405 ft 3 kts 186°
2026-05-08 08:52 47.46226 8.55403 1407 ft 4 kts 186°
2026-05-08 08:52 47.46247 8.55406 1410 ft 4 kts 194°
2026-05-08 08:52 47.46257 8.55413 1411 ft 4 kts 241°
2026-05-08 08:53 47.46260 8.55439 1414 ft 3 kts 276°
2026-05-08 08:53 47.46257 8.55477 1412 ft 4 kts 276°
2026-05-08 08:53 47.46254 8.55514 1412 ft 2 kts 276°
2026-05-08 08:53 47.46254 8.55517 1406 ft 0 kts 276°
2026-05-08 08:57 47.46255 8.55511 1406 ft 2 kts 276°
2026-05-08 08:58 47.46257 8.55479 1411 ft 5 kts 276°
2026-05-08 08:58 47.46261 8.55418 1406 ft 7 kts 276°
2026-05-08 08:58 47.46268 8.55328 1410 ft 10 kts 276°
2026-05-08 08:58 47.46276 8.55215 1401 ft 12 kts 276°
2026-05-08 08:59 47.46285 8.55080 1401 ft 14 kts 276°
2026-05-08 08:59 47.46294 8.54959 1405 ft 12 kts 276°
2026-05-08 08:59 47.46343 8.54865 1404 ft 13 kts 334°
2026-05-08 08:59 47.46429 8.54803 1406 ft 13 kts 335°
2026-05-08 09:00 47.46509 8.54748 1406 ft 12 kts 335°
2026-05-08 09:00 47.46583 8.54697 1408 ft 11 kts 335°
2026-05-08 09:00 47.46655 8.54648 1408 ft 12 kts 335°
2026-05-08 09:00 47.46741 8.54586 1403 ft 15 kts 327°
2026-05-08 09:01 47.46814 8.54454 1399 ft 17 kts 304°
2026-05-08 09:01 47.46873 8.54367 1386 ft 12 kts 329°
2026-05-08 09:01 47.46944 8.54318 1394 ft 11 kts 335°
2026-05-08 09:01 47.47013 8.54272 1397 ft 11 kts 335°
2026-05-08 09:02 47.47078 8.54227 1405 ft 10 kts 335°
2026-05-08 09:02 47.47140 8.54184 1402 ft 9 kts 335°
2026-05-08 09:02 47.47196 8.54146 1404 ft 8 kts 335°
2026-05-08 09:02 47.47246 8.54110 1400 ft 8 kts 335°
2026-05-08 09:03 47.47292 8.54079 1405 ft 7 kts 335°
2026-05-08 09:03 47.47332 8.54051 1404 ft 7 kts 335°
2026-05-08 09:03 47.47363 8.54030 1408 ft 8 kts 335°
2026-05-08 09:03 47.47416 8.53993 1400 ft 9 kts 335°
2026-05-08 09:04 47.47476 8.53952 1409 ft 10 kts 335°
2026-05-08 09:04 47.47541 8.53908 1410 ft 11 kts 335°
2026-05-08 09:04 47.47600 8.53835 1411 ft 12 kts 296°
2026-05-08 09:04 47.47595 8.53710 1414 ft 13 kts 248°
2026-05-08 09:05 47.47535 8.53629 1412 ft 12 kts 176°
2026-05-08 09:05 47.47411 8.53706 1409 ft 41 kts 155°
2026-05-08 09:05 47.46940 8.54030 1402 ft 106 kts 155°
2026-05-08 09:05 47.46093 8.54613 1407 ft 160 kts 155°
2026-05-08 09:06 47.44936 8.55413 1437 ft 202 kts 154°
2026-05-08 09:06 47.43620 8.56325 1884 ft 213 kts 154°
2026-05-08 09:06 47.42310 8.57389 2579 ft 218 kts 137°
2026-05-08 09:06 47.41600 8.59295 3284 ft 215 kts 92°
2026-05-08 09:07 47.41993 8.61350 3840 ft 214 kts 50°
2026-05-08 09:07 47.43117 8.62838 4244 ft 221 kts 38°
2026-05-08 09:07 47.44313 8.64297 4672 ft 226 kts 43°
2026-05-08 09:07 47.45462 8.65924 5116 ft 231 kts 44°
2026-05-08 09:08 47.46418 8.67841 5511 ft 237 kts 71°
2026-05-08 09:08 47.46638 8.70245 5808 ft 246 kts 94°
2026-05-08 09:08 47.46553 8.72852 6134 ft 260 kts 92°
2026-05-08 09:08 47.46507 8.75600 6422 ft 274 kts 91°
2026-05-08 09:09 47.46555 8.78476 6790 ft 285 kts 88°
2026-05-08 09:09 47.46615 8.81439 7284 ft 291 kts 93°
2026-05-08 09:09 47.46404 8.84430 7860 ft 293 kts 102°
2026-05-08 09:09 47.46000 8.87393 8462 ft 295 kts 104°
2026-05-08 09:10 47.45555 8.90375 9051 ft 298 kts 104°
2026-05-08 09:10 47.45119 8.93334 9689 ft 299 kts 103°
2026-05-08 09:10 47.44677 8.96392 10280 ft 301 kts 103°
2026-05-08 09:10 47.44241 8.99434 10599 ft 313 kts 103°
2026-05-08 09:11 47.43777 9.02662 10847 ft 327 kts 103°
2026-05-08 09:11 47.43294 9.06014 11095 ft 340 kts 103°
2026-05-08 09:11 47.42790 9.09503 11342 ft 353 kts 103°
2026-05-08 09:11 47.42268 9.13110 11608 ft 366 kts 103°
2026-05-08 09:12 47.41726 9.16843 11848 ft 378 kts 103°
2026-05-08 09:12 47.41167 9.20704 12233 ft 387 kts 102°
2026-05-08 09:12 47.40868 9.24672 12747 ft 392 kts 91°
2026-05-08 09:12 47.41048 9.28699 13348 ft 394 kts 81°
2026-05-08 09:13 47.41707 9.32652 13915 ft 398 kts 71°
2026-05-08 09:13 47.42805 9.36423 14415 ft 401 kts 64°
2026-05-08 09:13 47.43963 9.40212 14951 ft 404 kts 69°
2026-05-08 09:13 47.44798 9.44203 15430 ft 407 kts 76°
2026-05-08 09:14 47.45483 9.48283 15931 ft 410 kts 77°
2026-05-08 09:14 47.46121 9.52408 16422 ft 413 kts 78°
2026-05-08 09:14 47.46707 9.56587 16910 ft 416 kts 81°
2026-05-08 09:14 47.47020 9.60849 17388 ft 419 kts 88°
2026-05-08 09:15 47.47010 9.65175 17843 ft 421 kts 94°
2026-05-08 09:15 47.46798 9.69519 18288 ft 425 kts 95°
2026-05-08 09:15 47.46546 9.73896 18706 ft 429 kts 96°
2026-05-08 09:15 47.46287 9.78307 19089 ft 431 kts 96°
2026-05-08 09:16 47.46031 9.82740 19492 ft 434 kts 96°
2026-05-08 09:16 47.45776 9.87211 19905 ft 437 kts 96°
2026-05-08 09:16 47.45522 9.91698 20310 ft 439 kts 96°
2026-05-08 09:16 47.45267 9.96216 20691 ft 442 kts 96°
2026-05-08 09:17 47.45008 10.00766 21083 ft 445 kts 96°
2026-05-08 09:17 47.44746 10.05343 21463 ft 448 kts 96°
2026-05-08 09:17 47.44479 10.09951 21818 ft 452 kts 96°
2026-05-08 09:17 47.44208 10.14601 22186 ft 455 kts 97°
2026-05-08 09:18 47.43823 10.19250 22545 ft 457 kts 100°
2026-05-08 09:18 47.43259 10.23892 22941 ft 459 kts 102°
2026-05-08 09:18 47.42637 10.28535 23335 ft 461 kts 103°
2026-05-08 09:18 47.42012 10.33138 23658 ft 464 kts 103°
2026-05-08 09:19 47.41373 10.37833 23945 ft 467 kts 103°
2026-05-08 09:19 47.40727 10.42578 24242 ft 469 kts 103°
2026-05-08 09:19 47.40074 10.47384 24529 ft 472 kts 103°
2026-05-08 09:19 47.39428 10.52099 24802 ft 475 kts 103°
2026-05-08 09:20 47.38765 10.56901 25054 ft 479 kts 103°
2026-05-08 09:20 47.38096 10.61738 25323 ft 481 kts 103°
2026-05-08 09:20 47.37422 10.66598 25574 ft 484 kts 104°
2026-05-08 09:20 47.36743 10.71480 25868 ft 486 kts 104°
2026-05-08 09:21 47.36058 10.76384 26147 ft 489 kts 104°
2026-05-08 09:21 47.35368 10.81312 26420 ft 491 kts 104°
2026-05-08 09:22 47.31100 11.11438 27992 ft 508 kts 104°
2026-05-08 09:23 47.30368 11.16548 28232 ft 510 kts 104°
2026-05-08 09:23 47.29632 11.21671 28540 ft 510 kts 104°
2026-05-08 09:23 47.28895 11.26788 28913 ft 510 kts 105°
2026-05-08 09:23 47.28156 11.31892 29266 ft 509 kts 104°
2026-05-08 09:24 47.27415 11.37002 29588 ft 510 kts 105°
2026-05-08 09:24 47.26671 11.42108 29939 ft 509 kts 105°
2026-05-08 09:24 47.25924 11.47216 30284 ft 509 kts 105°
2026-05-08 09:24 47.25234 11.52336 30582 ft 510 kts 102°
2026-05-08 09:25 47.24660 11.57489 30894 ft 509 kts 102°
2026-05-08 09:25 47.24105 11.62640 31179 ft 509 kts 102°
2026-05-08 09:25 47.23554 11.67781 31443 ft 508 kts 102°
2026-05-08 09:25 47.22996 11.72939 31687 ft 509 kts 103°
2026-05-08 09:26 47.22433 11.78099 31879 ft 511 kts 103°
2026-05-08 09:26 47.21865 11.83278 32095 ft 512 kts 103°
2026-05-08 09:26 47.21298 11.88476 32264 ft 515 kts 103°
2026-05-08 09:26 47.20751 11.93722 32472 ft 516 kts 102°
2026-05-08 09:27 47.20247 11.98962 32722 ft 516 kts 102°
2026-05-08 09:27 47.19755 12.04174 32943 ft 517 kts 102°
2026-05-08 09:27 47.19255 12.09431 33062 ft 519 kts 102°
2026-05-08 09:28 47.18234 12.19950 33061 ft 519 kts 102°
2026-05-08 09:28 47.17195 12.30458 33064 ft 518 kts 102°
2026-05-08 09:29 47.16146 12.40947 33060 ft 518 kts 102°
2026-05-08 09:29 47.15090 12.51372 33053 ft 520 kts 102°
2026-05-08 09:30 47.14015 12.61919 33068 ft 521 kts 103°
2026-05-08 09:30 47.12930 12.72454 33064 ft 521 kts 103°
2026-05-08 09:31 47.11836 12.82982 33056 ft 521 kts 103°
2026-05-08 09:31 47.10729 12.93528 33052 ft 522 kts 103°
2026-05-08 09:32 47.09613 13.04060 33048 ft 522 kts 103°
2026-05-08 09:32 47.08483 13.14636 33055 ft 523 kts 103°
2026-05-08 09:33 47.07346 13.25188 33061 ft 523 kts 103°
2026-05-08 09:33 47.06194 13.35753 33071 ft 525 kts 103°
2026-05-08 09:34 47.05033 13.46342 33066 ft 524 kts 103°
2026-05-08 09:34 47.03865 13.56905 33054 ft 524 kts 103°
2026-05-08 09:35 47.02684 13.67483 33058 ft 525 kts 103°
2026-05-08 09:35 47.01489 13.78087 33070 ft 527 kts 103°
2026-05-08 09:36 47.00285 13.88694 33072 ft 527 kts 103°
2026-05-08 09:36 46.99072 13.99275 33078 ft 526 kts 103°
2026-05-08 09:37 46.97851 14.09849 33064 ft 527 kts 103°
2026-05-08 09:37 46.96615 14.20456 33076 ft 528 kts 103°
2026-05-08 09:38 46.95369 14.31060 33082 ft 527 kts 103°
2026-05-08 09:38 46.94121 14.41584 33091 ft 528 kts 103°
2026-05-08 09:39 46.92855 14.52178 33083 ft 528 kts 103°
2026-05-08 09:39 46.91581 14.62760 33092 ft 528 kts 104°
2026-05-08 09:40 46.90297 14.73342 33091 ft 528 kts 104°
2026-05-08 09:40 46.88999 14.83935 33094 ft 528 kts 104°
2026-05-08 09:41 46.87688 14.94547 33086 ft 529 kts 104°
2026-05-08 09:41 46.86372 15.05144 33081 ft 528 kts 104°
2026-05-08 09:42 46.85044 15.15728 33082 ft 530 kts 104°
2026-05-08 09:42 46.83705 15.26330 33068 ft 529 kts 104°
2026-05-08 09:43 46.82358 15.36896 33086 ft 529 kts 104°
2026-05-08 09:43 46.81002 15.47468 33100 ft 529 kts 104°
2026-05-08 09:44 46.79636 15.58037 33085 ft 529 kts 104°
2026-05-08 09:44 46.78260 15.68588 33086 ft 529 kts 104°
2026-05-08 09:45 46.76870 15.79168 33081 ft 530 kts 104°
2026-05-08 09:45 46.75471 15.89753 33099 ft 530 kts 104°
2026-05-08 09:46 46.74075 16.00234 33091 ft 530 kts 104°
2026-05-08 09:46 46.72655 16.10802 33082 ft 530 kts 104°
2026-05-08 09:47 46.71227 16.21351 33096 ft 530 kts 104°
2026-05-08 09:47 46.69789 16.31894 33087 ft 530 kts 104°
2026-05-08 09:48 46.68340 16.42438 33069 ft 530 kts 104°
2026-05-08 09:48 46.67079 16.53026 33093 ft 530 kts 102°
2026-05-08 09:49 46.65899 16.63625 33090 ft 530 kts 102°
2026-05-08 09:49 46.64690 16.74218 33093 ft 529 kts 102°
2026-05-08 09:50 46.63456 16.84798 33074 ft 529 kts 102°
2026-05-08 09:50 46.62209 16.95367 33092 ft 529 kts 102°
2026-05-08 09:51 46.61163 17.04164 33092 ft 529 kts 103°
2026-05-08 09:51 46.59899 17.14721 33094 ft 529 kts 103°
2026-05-08 09:52 46.58623 17.25272 33085 ft 528 kts 103°
2026-05-08 09:52 46.57341 17.35798 33089 ft 528 kts 103°
2026-05-08 09:53 46.56052 17.46306 33084 ft 528 kts 103°
2026-05-08 09:53 46.54759 17.56760 33083 ft 528 kts 103°
2026-05-08 09:54 46.53450 17.67260 33076 ft 528 kts 103°
2026-05-08 09:54 46.52130 17.77761 33081 ft 528 kts 103°
2026-05-08 09:55 46.50574 17.90035 33072 ft 528 kts 103°
2026-05-08 09:55 46.49462 17.98744 33081 ft 527 kts 103°
2026-05-08 09:56 46.48115 18.09227 33066 ft 525 kts 103°
2026-05-08 09:56 46.46763 18.19657 33067 ft 525 kts 103°
2026-05-08 09:57 46.44720 18.35279 33065 ft 525 kts 103°
2026-05-08 09:57 46.43346 18.45677 33075 ft 524 kts 103°
2026-05-08 09:58 46.41964 18.56069 33078 ft 524 kts 103°
2026-05-08 09:58 46.40574 18.66445 33070 ft 524 kts 104°
2026-05-08 09:59 46.39176 18.76808 33065 ft 523 kts 104°
2026-05-08 09:59 46.37778 18.87081 33069 ft 522 kts 104°
2026-05-08 10:00 46.36366 18.97403 33070 ft 522 kts 104°
2026-05-08 10:00 46.34947 19.07702 33069 ft 522 kts 104°
2026-05-08 10:01 46.33515 19.18011 33059 ft 521 kts 104°
2026-05-08 10:01 46.32078 19.28295 33065 ft 520 kts 104°
2026-05-08 10:02 46.30634 19.38561 33068 ft 520 kts 104°
2026-05-08 10:02 46.29180 19.48823 33068 ft 520 kts 104°
2026-05-08 10:03 46.27718 19.59070 33054 ft 518 kts 104°
2026-05-08 10:03 46.26257 19.69243 33063 ft 515 kts 104°
2026-05-08 10:04 46.24789 19.79392 33062 ft 515 kts 104°
2026-05-08 10:04 46.23312 19.89527 33065 ft 515 kts 104°
2026-05-08 10:05 46.21826 19.99663 33065 ft 515 kts 104°
2026-05-08 10:05 46.20343 20.09711 33064 ft 515 kts 104°
2026-05-08 10:06 46.18839 20.19834 33066 ft 515 kts 105°
2026-05-08 10:06 46.17323 20.29953 33065 ft 515 kts 105°
2026-05-08 10:07 46.15763 20.40027 33058 ft 513 kts 107°
2026-05-08 10:07 46.13763 20.49888 33062 ft 511 kts 110°
2026-05-08 10:08 46.11676 20.59703 33066 ft 511 kts 110°
2026-05-08 10:08 46.09581 20.69517 33042 ft 511 kts 110°
2026-05-08 10:09 46.07488 20.79300 33059 ft 510 kts 110°
2026-05-08 10:09 46.05390 20.89058 33062 ft 509 kts 110°
2026-05-08 10:10 46.03285 20.98810 33063 ft 509 kts 110°
2026-05-08 10:10 46.01174 21.08547 33058 ft 509 kts 110°
2026-05-08 10:11 45.99053 21.18283 33064 ft 509 kts 111°
2026-05-08 10:11 45.96922 21.28015 33065 ft 509 kts 111°
2026-05-08 10:12 45.94786 21.37730 33067 ft 509 kts 111°
2026-05-08 10:12 45.92642 21.47441 33061 ft 508 kts 111°
2026-05-08 10:13 45.90494 21.57118 33057 ft 508 kts 111°
2026-05-08 10:13 45.88352 21.66722 33060 ft 508 kts 111°
2026-05-08 10:14 45.86187 21.76386 33056 ft 508 kts 111°
2026-05-08 10:14 45.84011 21.86048 33054 ft 508 kts 111°
2026-05-08 10:15 45.81828 21.95712 33056 ft 509 kts 111°
2026-05-08 10:15 45.79638 22.05360 33058 ft 509 kts 111°
2026-05-08 10:16 45.77439 22.15004 33047 ft 509 kts 111°
2026-05-08 10:16 45.75230 22.24645 33052 ft 508 kts 111°
2026-05-08 10:17 45.73015 22.34274 33055 ft 509 kts 111°
2026-05-08 10:17 45.70792 22.43897 33061 ft 508 kts 111°
2026-05-08 10:18 45.68562 22.53505 33044 ft 508 kts 112°
2026-05-08 10:18 45.66324 22.63105 33053 ft 508 kts 112°
2026-05-08 10:19 45.64079 22.72687 33051 ft 508 kts 112°
2026-05-08 10:20 45.60713 22.86982 33037 ft 508 kts 112°
2026-05-08 10:20 45.58444 22.96561 33046 ft 509 kts 112°
2026-05-08 10:21 45.56170 23.06127 33039 ft 509 kts 112°
2026-05-08 10:21 45.53883 23.15703 33045 ft 509 kts 112°
2026-05-08 10:22 45.51587 23.25273 33045 ft 509 kts 112°
2026-05-08 10:22 45.49288 23.34818 33049 ft 509 kts 112°
2026-05-08 10:23 45.46982 23.44361 33048 ft 508 kts 112°
2026-05-08 10:23 45.44667 23.53894 33049 ft 509 kts 112°
2026-05-08 10:24 45.42342 23.63422 33048 ft 508 kts 112°
2026-05-08 10:24 45.40013 23.72931 33052 ft 508 kts 112°
2026-05-08 10:25 45.37676 23.82432 33053 ft 508 kts 112°
2026-05-08 10:25 45.35329 23.91926 33042 ft 507 kts 112°
2026-05-08 10:26 45.32986 24.01370 33046 ft 505 kts 112°
2026-05-08 10:26 45.30640 24.10788 33053 ft 505 kts 112°
2026-05-08 10:27 45.28287 24.20195 33038 ft 505 kts 112°
2026-05-08 10:27 45.25925 24.29593 33041 ft 504 kts 112°
2026-05-08 10:28 45.23559 24.38977 33035 ft 504 kts 112°
2026-05-08 10:28 45.21186 24.48349 33037 ft 504 kts 112°
2026-05-08 10:29 45.18818 24.57664 33037 ft 504 kts 113°
2026-05-08 10:29 45.16425 24.67033 33032 ft 505 kts 112°
2026-05-08 10:30 45.14026 24.76401 33036 ft 505 kts 113°
2026-05-08 10:30 45.11616 24.85765 33036 ft 505 kts 113°
2026-05-08 10:31 45.09200 24.95109 33019 ft 505 kts 112°
2026-05-08 10:31 45.06776 25.04449 33029 ft 505 kts 112°
2026-05-08 10:32 45.04343 25.13788 33033 ft 505 kts 113°
2026-05-08 10:32 45.01901 25.23117 33033 ft 505 kts 113°
2026-05-08 10:33 44.99404 25.32387 33022 ft 504 kts 115°
2026-05-08 10:33 44.96419 25.41335 33028 ft 503 kts 119°
2026-05-08 10:34 44.93313 25.50187 33028 ft 502 kts 119°
2026-05-08 10:34 44.90219 25.58974 33009 ft 502 kts 119°
2026-05-08 10:35 44.87102 25.67802 33021 ft 502 kts 119°
2026-05-08 10:35 44.83983 25.76624 33028 ft 502 kts 119°
2026-05-08 10:36 44.80855 25.85440 33031 ft 502 kts 119°
2026-05-08 10:36 44.77719 25.94242 33027 ft 503 kts 119°
2026-05-08 10:37 44.74578 26.03035 33039 ft 503 kts 119°
2026-05-08 10:37 44.71427 26.11836 33039 ft 503 kts 119°
2026-05-08 10:38 44.68266 26.20631 33045 ft 503 kts 119°
2026-05-08 10:38 44.65096 26.29413 33033 ft 503 kts 119°
2026-05-08 10:39 44.61924 26.38184 33030 ft 503 kts 119°
2026-05-08 10:39 44.58743 26.46951 33032 ft 503 kts 119°
2026-05-08 10:40 44.55553 26.55706 33028 ft 504 kts 119°
2026-05-08 10:40 44.52896 26.62979 33033 ft 504 kts 119°
2026-05-08 10:41 44.49695 26.71722 33043 ft 504 kts 119°
2026-05-08 10:41 44.46483 26.80463 33038 ft 504 kts 119°
2026-05-08 10:42 44.43267 26.89190 33041 ft 504 kts 119°
2026-05-08 10:42 44.40042 26.97911 33039 ft 504 kts 119°
2026-05-08 10:43 44.36816 27.06607 33036 ft 504 kts 119°
2026-05-08 10:43 44.33580 27.15300 33034 ft 504 kts 119°
2026-05-08 10:44 44.30331 27.23999 33045 ft 505 kts 119°
2026-05-08 10:44 44.27078 27.32692 33046 ft 505 kts 119°
2026-05-08 10:45 44.23814 27.41384 33046 ft 505 kts 119°
2026-05-08 10:45 44.20561 27.50011 33047 ft 506 kts 119°
2026-05-08 10:46 44.17278 27.58701 33043 ft 506 kts 119°
2026-05-08 10:46 44.13989 27.67378 33042 ft 506 kts 119°
2026-05-08 10:47 44.10693 27.76041 33050 ft 506 kts 119°
2026-05-08 10:47 44.07384 27.84710 33049 ft 507 kts 119°
2026-05-08 10:48 44.04070 27.93379 33051 ft 508 kts 120°
2026-05-08 10:48 44.00744 28.02040 33058 ft 508 kts 120°
2026-05-08 10:49 43.97400 28.10719 33066 ft 508 kts 119°
2026-05-08 10:49 43.94056 28.19377 33065 ft 508 kts 120°
2026-05-08 10:50 43.90708 28.28019 33063 ft 508 kts 120°
2026-05-08 10:50 43.87349 28.36657 33065 ft 509 kts 119°
2026-05-08 10:51 43.83978 28.45302 33077 ft 509 kts 119°
2026-05-08 10:51 43.80603 28.53934 33076 ft 509 kts 120°
2026-05-08 10:52 43.77220 28.62556 33076 ft 509 kts 120°
2026-05-08 10:52 43.73829 28.71165 33081 ft 509 kts 120°
2026-05-08 10:53 43.70393 28.79676 33098 ft 509 kts 122°
2026-05-08 10:53 43.66423 28.87768 33091 ft 509 kts 127°
2026-05-08 10:53 43.64336 28.91747 33275 ft 511 kts 127°
2026-05-08 10:54 43.62252 28.95711 33663 ft 508 kts 127°
2026-05-08 10:54 43.60180 28.99653 34076 ft 505 kts 127°
2026-05-08 10:54 43.58120 29.03571 34360 ft 504 kts 127°
2026-05-08 10:54 43.56057 29.07491 34581 ft 505 kts 127°
2026-05-08 10:55 43.53992 29.11412 34777 ft 505 kts 127°
2026-05-08 10:55 43.51923 29.15335 34971 ft 506 kts 127°
2026-05-08 10:55 43.49850 29.19259 35098 ft 507 kts 127°
2026-05-08 10:56 43.45653 29.27194 35085 ft 508 kts 128°
2026-05-08 10:56 43.41479 29.35063 35095 ft 508 kts 128°
2026-05-08 10:57 43.37300 29.42919 35101 ft 508 kts 128°
2026-05-08 10:57 43.31009 29.54703 35097 ft 510 kts 128°
2026-05-08 10:58 43.26834 29.62504 35100 ft 510 kts 128°
2026-05-08 10:58 43.22627 29.70342 35100 ft 510 kts 128°
2026-05-08 10:59 43.18413 29.78171 35102 ft 510 kts 128°
2026-05-08 10:59 43.14195 29.85985 35106 ft 510 kts 128°
2026-05-08 11:00 43.09970 29.93794 35110 ft 510 kts 128°
2026-05-08 11:00 43.05732 30.01597 35095 ft 511 kts 128°
2026-05-08 11:01 43.01485 30.09415 35104 ft 512 kts 128°
2026-05-08 11:01 42.97225 30.17222 35106 ft 512 kts 128°
2026-05-08 11:02 42.90816 30.28924 35107 ft 513 kts 128°
2026-05-08 11:03 42.86537 30.36719 35113 ft 513 kts 128°
2026-05-08 11:03 42.82247 30.44509 35115 ft 513 kts 128°
2026-05-08 11:04 42.78121 30.52451 35116 ft 512 kts 121°
2026-05-08 11:04 42.74948 30.61059 35112 ft 512 kts 111°
2026-05-08 11:05 42.72862 30.70317 35116 ft 511 kts 101°
2026-05-08 11:05 42.71760 30.79871 35114 ft 509 kts 96°
2026-05-08 11:06 42.70831 30.89413 35121 ft 508 kts 96°
2026-05-08 11:06 42.69873 30.98941 35118 ft 508 kts 96°
2026-05-08 11:07 42.68891 31.08467 35113 ft 508 kts 96°
2026-05-08 11:07 42.67894 31.17986 35125 ft 508 kts 96°
2026-05-08 11:08 42.66891 31.27496 35120 ft 508 kts 97°
2026-05-08 11:08 42.65879 31.37003 35138 ft 508 kts 97°
2026-05-08 11:09 42.64864 31.46478 35127 ft 505 kts 97°
2026-05-08 11:09 42.63845 31.55894 35124 ft 501 kts 97°
2026-05-08 11:10 42.62822 31.65275 35127 ft 501 kts 97°
2026-05-08 11:10 42.61791 31.74652 35129 ft 501 kts 97°
2026-05-08 11:11 42.60752 31.84028 35131 ft 501 kts 97°
2026-05-08 11:11 42.59708 31.93360 35120 ft 499 kts 97°
2026-05-08 11:12 42.58665 32.02625 35121 ft 499 kts 97°
2026-05-08 11:12 42.57628 32.11946 35138 ft 499 kts 97°
2026-05-08 11:13 42.56565 32.21274 35138 ft 499 kts 97°
2026-05-08 11:13 42.55492 32.30591 35134 ft 499 kts 98°
2026-05-08 11:14 42.54413 32.39893 35126 ft 499 kts 98°